Shungnak AP, Shungnak, AK, AK

1:43 AM AKST on November 22, 2019 (GMT -0900)
Shungnak AP, Shungnak, AK

Weather History for PAGH - September, 2019

Change the Weather History Date:

Sunday, September 1, 2019

  Actual Average (WUND) Record (WUND)
Temperature  
Mean Temperature 54 °F -  
Max Temperature 59 °F - - (-1)
Min Temperature 48 °F - - (-1)
Degree Days  
Heating Degree Days 12    
Growing Degree Days 4 (Base 50)    
Moisture  
Dew Point 38 °F    
Average Humidity 55    
Maximum Humidity 64    
Minimum Humidity 46    
Precipitation  
Precipitation 0.00 in - - ()
Sea Level Pressure  
Sea Level Pressure 29.68 in    
Wind  
Wind Speed 19 mph (ESE)    
Max Wind Speed 32 mph    
Max Gust Speed 45 mph    
Visibility 10 miles    
Events Rain    
Averages and records for this station are not official NWS values.
T = Trace of Precipitation, MM = Missing Value Source: NWS Daily Summary

Daily Weather History Graph

Daily Weather History Graph

Search for Another Location

Airport or City:

Astronomy

Sep. 01, 2019 Rise Set
Actual Time 7:00 AM AKDT 9:54 PM AKDT
Civil Twilight 5:58 AM AKDT 10:55 PM AKDT
Nautical Twilight 4:24 AM AKDT 12:27 AM AKDT
Astronomical Twilight Sun does not rise Sun does not rise
Moon 10:41 AM AKDT (9/1) 10:35 PM AKDT (9/1)
Length of Visible Light 16h 56m
Length of Day
14h 54m
Waxing Crescent, 9% of the Moon is Illuminated
Sep 1
Waxing Crescent
Sep 5
First Quarter
Sep 13
Full
Sep 21
Last Quarter
Sep 28
New

Hourly Weather History & Observations

Time (AKDT) Temp. Dew Point Humidity Pressure Visibility Wind Dir Wind Speed Gust Speed Precip Events Conditions
12:56 AM 51.1 °F 37.9 °F 61% 29.85 in 10.0 mi East 15.0 mph - N/A   Clear
1:56 AM 50.0 °F 37.9 °F 63% 29.85 in 10.0 mi East 10.4 mph - N/A   Clear
2:56 AM 50.0 °F 37.0 °F 61% 29.83 in 10.0 mi ESE 13.8 mph - N/A   Clear
3:56 AM 50.0 °F 37.0 °F 61% 29.82 in 10.0 mi East 16.1 mph 21.9 mph N/A   Clear
4:56 AM 50.0 °F 37.0 °F 61% 29.81 in 10.0 mi ESE 16.1 mph 24.2 mph N/A   Scattered Clouds
5:56 AM 48.9 °F 37.0 °F 64% 29.80 in 10.0 mi ESE 12.7 mph - N/A   Clear
6:56 AM 50.0 °F 36.0 °F 59% 29.79 in 10.0 mi ESE 16.1 mph 25.3 mph N/A   Overcast
7:56 AM 51.1 °F 36.0 °F 56% 29.78 in 10.0 mi ESE 17.3 mph 23.0 mph N/A   Overcast
8:56 AM 51.1 °F 35.1 °F 54% 29.75 in 10.0 mi East 23.0 mph 33.4 mph N/A   Overcast
9:56 AM 51.1 °F 35.1 °F 54% 29.73 in 10.0 mi East 27.6 mph 33.4 mph N/A   Overcast
10:56 AM 51.1 °F 34.0 °F 52% 29.71 in 10.0 mi ESE 27.6 mph 39.1 mph N/A   Clear
11:56 AM 52.0 °F 34.0 °F 50% 29.69 in 10.0 mi ESE 24.2 mph 38.0 mph N/A   Clear
12:56 PM 54.0 °F 35.1 °F 49% 29.68 in 10.0 mi ESE 28.8 mph 35.7 mph N/A   Mostly Cloudy
1:56 PM 55.9 °F 36.0 °F 47% 29.65 in 10.0 mi ESE 31.1 mph 44.9 mph N/A   Clear
2:56 PM 57.9 °F 37.0 °F 46% 29.63 in 10.0 mi ESE 28.8 mph 39.1 mph N/A   Clear
3:56 PM 57.0 °F 37.9 °F 49% 29.62 in 10.0 mi ESE 32.2 mph 39.1 mph N/A   Overcast
4:56 PM 57.9 °F 39.0 °F 49% 29.60 in 10.0 mi East 25.3 mph 31.1 mph N/A   Overcast
5:56 PM 57.9 °F 39.9 °F 51% 29.57 in 10.0 mi ESE 25.3 mph 35.7 mph N/A   Overcast
6:56 PM 59.0 °F 41.0 °F 51% 29.55 in 10.0 mi East 21.9 mph 29.9 mph N/A   Overcast
7:56 PM 57.9 °F 41.0 °F 53% 29.53 in 10.0 mi ESE 19.6 mph 33.4 mph N/A   Overcast
8:56 PM 57.9 °F 41.0 °F 53% 29.52 in 10.0 mi ESE 20.7 mph 31.1 mph N/A   Mostly Cloudy
9:56 PM 57.0 °F 41.0 °F 55% 29.52 in 10.0 mi ESE 20.7 mph 32.2 mph N/A   Overcast
10:56 PM 57.0 °F 39.9 °F 53% 29.52 in 10.0 mi East 27.6 mph 35.7 mph N/A   Mostly Cloudy
11:56 PM 55.0 °F 39.9 °F 57% 29.52 in 10.0 mi ESE 29.9 mph 42.6 mph 0.00 in Rain Light Rain